Regional Weather Roundup
Issued by NWS Green Bay, WI

Home | Current Version | Previous Version | Text Only | Print | Product List | Glossary On
Versions: 1 2 3 4 5 6 7 8 9 10 11 12 13 14 15 16 17 18 19 20 21 22 23 24 25 26 27 28 29 30 31 32 33 34 35 36 37 38 39 40 41 42 43 44 45 46 47 48 49 50
000
ASUS43 KGRB 201410
RWRGRB

NORTH-CENTRAL AND NORTHEAST WISCONSIN REGIONAL WEATHER ROUNDUP
NATIONAL WEATHER SERVICE GREEN BAY WI
800 AM CST SAT DEC 20 2014

WIZ005-009-010>012-018-019-201500-
NORTH CENTRAL WISCONSIN

CITY           SKY/WX    TMP DP  RH WIND       PRES   REMARKS
IRONWOOD       CLOUDY    25  21  86 S5        30.15S
MANITOWISH WTR CLOUDY    23  23 100 SE3       30.16F FOG
ARBOR VITAE    CLOUDY    24  22  93 S3        30.17S FOG
EAGLE RIVER    CLOUDY    22  22  99 CALM      30.17S FOG
LAND O LAKES   CLOUDY    22  21  96 CALM      30.18F FOG
RHINELANDER    CLOUDY    22  21  96 CALM      30.18S FOG
PHILLIPS       CLOUDY    24  22  93 S3        30.16F
ANTIGO         CLOUDY    22  21  98 CALM      30.20S FOG
TOMAHAWK       CLOUDY    24  22  94 CALM      30.19S FOG
MERRILL        CLOUDY    24  24  97 SE3       30.20F FOG
$$

WIZ013-073-201500-
NORTHEAST WISCONSIN

CITY           SKY/WX    TMP DP  RH WIND       PRES   REMARKS
IRON MOUNTAIN  CLOUDY    18  14  84 CALM      30.21F
MARINETTE      MOCLDY    16  12  86 CALM      30.26F
OCONTO         CLOUDY    18  18  97 CALM      30.27S
$$

WIZ017-030-035>037-045-201500-
CENTRAL WISCONSIN

CITY           SKY/WX    TMP DP  RH WIND       PRES   REMARKS
MEDFORD        CLOUDY    24  22  94 S5        30.18S FOG
WAUSAU         CLOUDY    24  23  96 SE5       30.20S FOG
MOSINEE        NOT AVBL
MARSHFIELD     CLOUDY    25  22  88 S7        30.20S
WISC RAPIDS    CLOUDY    25  22  88 S3        30.23F
STEVENS POINT  CLOUDY    24  22  93 CALM      30.23S FOG
WAUPACA        CLOUDY    27  23  85 CALM      30.25F FOG
SHAWANO        CLOUDY    24  22  89 CALM      30.26S
CLINTONVILLE   CLOUDY    27  23  86 CALM      30.25F
$$

WIZ038-039-048-051-201500-
FOX VALLEY

CITY           SKY/WX    TMP DP  RH WIND       PRES   REMARKS
NWS GREEN BAY  CLOUDY    22  20  92 CALM      30.27S FOG
APPLETON       MOCLDY    25  19  80 CALM      30.26S
OSHKOSH        CLOUDY    24  21  88 CALM      30.25F FOG
FOND DU LAC    CLOUDY    24  20  84 CALM      30.26S
$$

WIZ022-050-052-201500-
EAST CENTRAL WISCONSIN

CITY           SKY/WX    TMP DP  RH WIND       PRES   REMARKS
STURGEON BAY   CLOUDY    25  19  80 CALM      30.28S
MANITOWOC      CLOUDY    27  23  85 CALM      30.27S
SHEBOYGAN      CLOUDY    26  20  77 CALM      30.26S
$$

LMZ563-521-522-541>543-201500-
LAKESHORE

STATION/POSITION TIME  TEMP    WIND        PRES    VSBY  WAVE
                       AIR SEA DIR/SP/G                  HT/PER
                 (UTC) (F)     (DEG/KT/KT) (MB)    (MI)  (FT/S)
SHEBOYGAN LKSHOR 1400   28 34  320/  4/  5 1026.1R
KEWAUNEE LKSHORE 1400   26     290/  4/  7 1024.1S
ALGOMA MARINA    1300          330/  7/  9   N/A
TWO RIVERS CG    1300   26 36              1025.3   3 1/2  1
NORTHPORT PIER   1400   25     240/  4/  5 1025.1S
SISTER BAY LKSHO 1300             CALM       N/A
STURGEON BAY CG  1300   25     300/  5     1026.0      6   1
CHAMBERS ISLAND  1400   21      CALM  /  2 1025.1S
MENOMINEE LKSHOR 1400   21     230/  2/  3 1025.6S
$$



USA.gov is the U.S. government's official web portal to all federal, state and local government web resources and services.